Simultaneous Nadir Overpasses (SNOs) Predictions

Prediction of SNOs between LANDSAT-8 and NPP Satellite Orbit:

Table of predicted SNOs for the next 14.0 days since TLE Epoch: 11/16/2024
Index Date (LANDSAT-8) Time (LANDSAT-8) Lat,Lon (LANDSAT-8) SZA (LANDSAT-8 ) Date (NPP) Time (NPP) Lat,Lon (NPP) SZA (NPP ) Distance(km) Time Diff (sec)
1 11/17/2024 06:58:23 70.22, 72.02 89.23 11/17/2024 06:57:11 70.24, 71.73 89.26 11.38 72
2 11/17/2024 07:47:55 -70.00,-120.66 90.99 11/17/2024 07:47:50 -70.02,-120.61 90.97 2.58 5
3 11/17/2024 08:37:22 69.90, 46.84 88.92 11/17/2024 08:38:34 69.88, 46.90 88.91 2.90 72
4 11/19/2024 23:14:58 70.09,-172.30 89.72 11/19/2024 23:14:01 70.11,-172.28 89.74 2.08 57
5 11/20/2024 00:04:28 -69.99, -4.81 90.38 11/20/2024 00:04:42 -69.99, -4.77 90.38 1.35 14
6 11/20/2024 00:54:07 69.22, 161.79 88.86 11/20/2024 00:55:14 69.22, 163.66 88.87 73.72 67
7 11/22/2024 15:31:30 70.08, -56.44 90.30 11/22/2024 15:30:53 70.09, -56.47 90.31 1.91 37
8 11/22/2024 16:21:00 -69.98, 111.05 89.80 11/22/2024 16:21:34 -69.97, 111.04 89.81 1.50 34
9 11/25/2024 06:58:21 -70.85,-107.08 88.41 11/25/2024 06:57:13 -70.90,-109.28 88.35 80.47 68
10 11/25/2024 07:48:01 70.03, 59.35 90.78 11/25/2024 07:47:43 70.04, 59.39 90.80 2.43 18
11 11/25/2024 08:37:31 -69.93,-133.15 89.32 11/25/2024 08:38:24 -69.91,-133.09 89.33 2.85 53
12 11/27/2024 23:15:04 -70.15, 7.76 88.62 11/27/2024 23:13:51 -70.18, 7.67 88.59 4.63 73
13 11/28/2024 00:04:31 70.03, 175.24 91.27 11/28/2024 00:04:34 70.00, 175.24 91.25 3.03 3
14 11/28/2024 00:54:02 -69.88, -17.34 88.88 11/28/2024 00:55:15 -69.87, -17.24 88.88 3.99 73



Historial Predications of SNOs between LANDSAT-8 and NPP
